Time,TemperatureF,DewpointF,PressureIn,WindDirection,WindDirectionDegrees,WindSpeedMPH,WindSpeedGustMPH,Humidity,HourlyPrecipIn,Conditions,Clouds,dailyrainin,SoftwareType,DateUTC
2013-08-17 00:03:00,62.6,54.2,30.07,South,190,0.0,0.0,74,0.00,,,0.00,Wunderground v.1.15,2013-08-17 05:03:00,
2013-08-17 00:08:00,62.6,54.6,30.07,South,190,0.0,0.0,75,0.00,,,0.00,Wunderground v.1.15,2013-08-17 05:08:00,
2013-08-17 00:13:00,62.4,54.4,30.07,South,190,0.0,0.0,75,0.00,,,0.00,Wunderground v.1.15,2013-08-17 05:13:00,
2013-08-17 00:19:00,62.1,54.4,30.07,South,190,0.0,0.0,76,0.00,,,0.00,Wunderground v.1.15,2013-08-17 05:19:00,
2013-08-17 00:25:00,62.1,54.4,30.07,South,190,0.0,0.0,76,0.00,,,0.00,Wunderground v.1.15,2013-08-17 05:25:00,
2013-08-17 00:30:00,62.0,54.3,30.07,South,190,0.0,0.0,76,0.00,,,0.00,Wunderground v.1.15,2013-08-17 05:30:00,
2013-08-17 00:35:00,62.0,54.3,30.08,South,190,0.0,0.0,76,0.00,,,0.00,Wunderground v.1.15,2013-08-17 05:35:00,
2013-08-17 00:40:00,62.0,54.3,30.08,South,190,0.0,0.0,76,0.00,,,0.00,Wunderground v.1.15,2013-08-17 05:40:00,
2013-08-17 00:45:00,62.0,54.7,30.08,South,190,0.0,0.0,77,0.00,,,0.00,Wunderground v.1.15,2013-08-17 05:45:00,
2013-08-17 00:51:00,61.8,54.5,30.07,South,190,0.0,0.0,77,0.00,,,0.00,Wunderground v.1.15,2013-08-17 05:51:00,
2013-08-17 00:56:00,61.8,54.5,30.07,South,190,0.0,0.0,77,0.00,,,0.00,Wunderground v.1.15,2013-08-17 05:56:00,
2013-08-17 01:01:00,61.8,54.5,30.07,South,190,0.0,0.0,77,0.00,,,0.00,Wunderground v.1.15,2013-08-17 06:01:00,
2013-08-17 01:06:00,61.6,54.0,30.07,South,190,0.0,2.0,76,0.00,,,0.00,Wunderground v.1.15,2013-08-17 06:06:00,
2013-08-17 01:11:00,61.6,54.0,30.07,South,190,0.0,0.0,76,0.00,,,0.00,Wunderground v.1.15,2013-08-17 06:11:00,
2013-08-17 01:16:00,61.6,54.0,30.07,South,190,0.0,0.0,76,0.00,,,0.00,Wunderground v.1.15,2013-08-17 06:16:00,
2013-08-17 01:22:00,61.6,54.0,30.07,South,190,3.0,3.0,76,0.00,,,0.00,Wunderground v.1.15,2013-08-17 06:22:00,
2013-08-17 01:27:00,61.6,53.6,30.07,South,190,0.0,3.0,75,0.00,,,0.00,Wunderground v.1.15,2013-08-17 06:27:00,
2013-08-17 01:32:00,61.5,53.9,30.07,South,190,0.0,0.0,76,0.00,,,0.00,Wunderground v.1.15,2013-08-17 06:32:00,
2013-08-17 01:37:00,61.2,53.6,30.07,South,190,0.0,0.0,76,0.00,,,0.00,Wunderground v.1.15,2013-08-17 06:37:00,
2013-08-17 01:42:00,61.0,53.7,30.07,South,190,0.0,0.0,77,0.00,,,0.00,Wunderground v.1.15,2013-08-17 06:42:00,
2013-08-17 01:47:00,60.9,53.6,30.08,South,190,0.0,0.0,77,0.00,,,0.00,Wunderground v.1.15,2013-08-17 06:47:00,
2013-08-17 01:52:00,60.7,53.4,30.08,South,190,0.0,0.0,77,0.00,,,0.00,Wunderground v.1.15,2013-08-17 06:52:00,
2013-08-17 01:58:00,60.5,53.3,30.08,South,190,0.0,0.0,77,0.00,,,0.00,Wunderground v.1.15,2013-08-17 06:58:00,
2013-08-17 02:03:00,60.5,53.3,30.07,South,190,0.0,0.0,77,0.00,,,0.00,Wunderground v.1.15,2013-08-17 07:03:00,
2013-08-17 02:08:00,60.4,53.2,30.07,South,190,0.0,0.0,77,0.00,,,0.00,Wunderground v.1.15,2013-08-17 07:08:00,
2013-08-17 02:13:00,60.4,53.2,30.07,South,190,0.0,0.0,77,0.00,,,0.00,Wunderground v.1.15,2013-08-17 07:13:00,
2013-08-17 02:18:00,60.4,53.2,30.07,South,190,0.0,3.0,77,0.00,,,0.00,Wunderground v.1.15,2013-08-17 07:18:00,
2013-08-17 02:23:00,60.2,53.0,30.07,South,190,0.0,0.0,77,0.00,,,0.00,Wunderground v.1.15,2013-08-17 07:23:00,
2013-08-17 02:28:00,60.1,52.9,30.07,South,190,0.0,0.0,77,0.00,,,0.00,Wunderground v.1.15,2013-08-17 07:28:00,
2013-08-17 02:33:00,59.9,53.0,30.07,South,190,0.0,0.0,78,0.00,,,0.00,Wunderground v.1.15,2013-08-17 07:33:00,
2013-08-17 02:38:00,59.9,53.0,30.07,South,190,0.0,0.0,78,0.00,,,0.00,Wunderground v.1.15,2013-08-17 07:38:00,
2013-08-17 02:43:00,59.9,53.0,30.07,South,190,0.0,1.0,78,0.00,,,0.00,Wunderground v.1.15,2013-08-17 07:43:00,
2013-08-17 02:48:00,59.9,53.0,30.07,South,190,0.0,1.0,78,0.00,,,0.00,Wunderground v.1.15,2013-08-17 07:48:00,
2013-08-17 02:53:00,59.8,52.9,30.07,South,190,0.0,0.0,78,0.00,,,0.00,Wunderground v.1.15,2013-08-17 07:53:00,
2013-08-17 02:58:00,59.8,52.9,30.07,South,190,0.0,0.0,78,0.00,,,0.00,Wunderground v.1.15,2013-08-17 07:58:00,
2013-08-17 03:03:00,59.8,52.6,30.07,South,190,0.0,0.0,77,0.00,,,0.00,Wunderground v.1.15,2013-08-17 08:03:00,
2013-08-17 03:08:00,59.8,52.6,30.07,South,190,0.0,3.0,77,0.00,,,0.00,Wunderground v.1.15,2013-08-17 08:08:00,
2013-08-17 03:13:00,59.9,52.7,30.07,South,189,1.0,6.0,77,0.00,,,0.00,Wunderground v.1.15,2013-08-17 08:13:00,
2013-08-17 03:18:00,59.9,52.3,30.07,South,173,4.0,6.0,76,0.00,,,0.00,Wunderground v.1.15,2013-08-17 08:18:00,
2013-08-17 03:24:00,59.9,52.7,30.07,South,181,3.0,3.0,77,0.00,,,0.00,Wunderground v.1.15,2013-08-17 08:24:00,
2013-08-17 03:29:00,59.9,52.7,30.07,South,180,0.0,5.0,77,0.00,,,0.00,Wunderground v.1.15,2013-08-17 08:29:00,
2013-08-17 03:34:00,59.9,52.3,30.07,South,182,2.0,5.0,76,0.00,,,0.00,Wunderground v.1.15,2013-08-17 08:34:00,
2013-08-17 03:39:00,59.9,52.3,30.07,South,176,0.0,5.0,76,0.00,,,0.00,Wunderground v.1.15,2013-08-17 08:39:00,
2013-08-17 03:44:00,59.9,52.3,30.07,South,176,0.0,2.0,76,0.00,,,0.00,Wunderground v.1.15,2013-08-17 08:44:00,
2013-08-17 03:49:00,59.9,52.3,30.07,South,176,0.0,2.0,76,0.00,,,0.00,Wunderground v.1.15,2013-08-17 08:49:00,
2013-08-17 03:54:00,59.8,52.2,30.07,South,180,1.0,7.0,76,0.00,,,0.00,Wunderground v.1.15,2013-08-17 08:54:00,
2013-08-17 03:59:00,59.6,52.0,30.07,South,181,0.0,7.0,76,0.00,,,0.00,Wunderground v.1.15,2013-08-17 08:59:00,
2013-08-17 04:04:00,59.5,52.3,30.08,South,181,0.0,4.0,77,0.00,,,0.00,Wunderground v.1.15,2013-08-17 09:04:00,
2013-08-17 04:09:00,59.3,52.1,30.08,South,175,3.0,4.0,77,0.00,,,0.00,Wunderground v.1.15,2013-08-17 09:09:00,
2013-08-17 04:14:00,59.3,52.1,30.08,SSE,166,1.0,3.0,77,0.00,,,0.00,Wunderground v.1.15,2013-08-17 09:14:00,
2013-08-17 04:19:00,59.2,52.3,30.08,SSE,166,0.0,3.0,78,0.00,,,0.00,Wunderground v.1.15,2013-08-17 09:19:00,
2013-08-17 04:24:00,59.0,52.1,30.08,South,175,0.0,3.0,78,0.00,,,0.00,Wunderground v.1.15,2013-08-17 09:24:00,
2013-08-17 04:29:00,58.9,52.1,30.08,South,175,0.0,3.0,78,0.00,,,0.00,Wunderground v.1.15,2013-08-17 09:29:00,
2013-08-17 04:34:00,58.9,52.1,30.08,South,183,0.0,3.0,78,0.00,,,0.00,Wunderground v.1.15,2013-08-17 09:34:00,
2013-08-17 04:39:00,58.9,52.1,30.08,South,183,0.0,3.0,78,0.00,,,0.00,Wunderground v.1.15,2013-08-17 09:39:00,
2013-08-17 04:44:00,58.7,51.9,30.08,South,183,0.0,0.0,78,0.00,,,0.00,Wunderground v.1.15,2013-08-17 09:44:00,
2013-08-17 04:49:00,58.7,51.9,30.08,South,180,1.0,4.0,78,0.00,,,0.00,Wunderground v.1.15,2013-08-17 09:49:00,
2013-08-17 04:54:00,58.9,52.1,30.08,South,179,2.0,4.0,78,0.00,,,0.00,Wunderground v.1.15,2013-08-17 09:54:00,
2013-08-17 04:59:00,58.9,52.1,30.08,South,179,0.0,4.0,78,0.00,,,0.00,Wunderground v.1.15,2013-08-17 09:59:00,
2013-08-17 05:04:00,58.7,51.9,30.08,South,179,0.0,1.0,78,0.00,,,0.00,Wunderground v.1.15,2013-08-17 10:04:00,
2013-08-17 05:14:00,58.7,51.9,30.08,South,184,0.0,4.0,78,0.00,,,0.00,Wunderground v.1.15,2013-08-17 10:14:00,
2013-08-17 05:19:00,58.7,51.5,30.08,SSW,194,6.0,6.0,77,0.00,,,0.00,Wunderground v.1.15,2013-08-17 10:19:00,
2013-08-17 05:24:00,58.7,51.5,30.08,South,183,0.0,5.0,77,0.00,,,0.00,Wunderground v.1.15,2013-08-17 10:24:00,
2013-08-17 05:30:00,58.7,51.5,30.08,SSE,163,4.0,4.0,77,0.00,,,0.00,Wunderground v.1.15,2013-08-17 10:30:00,
2013-08-17 05:35:00,58.7,51.5,30.08,South,173,0.0,5.0,77,0.00,,,0.00,Wunderground v.1.15,2013-08-17 10:35:00,
2013-08-17 05:40:00,58.6,51.4,30.08,South,174,3.0,3.0,77,0.00,,,0.00,Wunderground v.1.15,2013-08-17 10:40:00,
2013-08-17 05:45:00,58.6,51.8,30.08,South,184,3.0,6.0,78,0.00,,,0.00,Wunderground v.1.15,2013-08-17 10:45:00,
2013-08-17 05:50:00,58.4,51.6,30.08,South,173,5.0,5.0,78,0.00,,,0.00,Wunderground v.1.15,2013-08-17 10:50:00,
2013-08-17 05:55:00,58.4,51.6,30.08,South,180,2.0,5.0,78,0.00,,,0.00,Wunderground v.1.15,2013-08-17 10:55:00,
2013-08-17 06:00:00,58.4,51.6,30.08,South,182,3.0,4.0,78,0.00,,,0.00,Wunderground v.1.15,2013-08-17 11:00:00,
2013-08-17 06:05:00,58.4,51.6,30.09,South,183,5.0,6.0,78,0.00,,,0.00,Wunderground v.1.15,2013-08-17 11:05:00,
2013-08-17 06:10:00,58.3,51.5,30.09,SSE,164,2.0,4.0,78,0.00,,,0.00,Wunderground v.1.15,2013-08-17 11:10:00,
2013-08-17 06:15:00,58.3,51.5,30.09,South,173,2.0,5.0,78,0.00,,,0.00,Wunderground v.1.15,2013-08-17 11:15:00,
2013-08-17 06:20:00,58.3,51.5,30.09,South,184,3.0,4.0,78,0.00,,,0.00,Wunderground v.1.15,2013-08-17 11:20:00,
2013-08-17 06:25:00,58.3,51.5,30.09,SSE,159,3.0,4.0,78,0.00,,,0.00,Wunderground v.1.15,2013-08-17 11:25:00,
2013-08-17 06:30:00,58.3,51.5,30.09,South,185,4.0,4.0,78,0.00,,,0.00,Wunderground v.1.15,2013-08-17 11:30:00,
2013-08-17 06:35:00,58.3,51.5,30.09,SSE,164,5.0,6.0,78,0.00,,,0.00,Wunderground v.1.15,2013-08-17 11:35:00,
2013-08-17 06:40:00,58.3,51.5,30.09,South,172,6.0,6.0,78,0.00,,,0.00,Wunderground v.1.15,2013-08-17 11:40:00,
2013-08-17 06:45:00,58.3,51.5,30.09,South,186,3.0,6.0,78,0.00,,,0.00,Wunderground v.1.15,2013-08-17 11:45:00,
2013-08-17 06:50:00,58.4,51.6,30.09,South,190,6.0,6.0,78,0.00,,,0.00,Wunderground v.1.15,2013-08-17 11:50:00,
2013-08-17 06:56:00,58.4,51.6,30.09,South,171,2.0,6.0,78,0.00,,,0.00,Wunderground v.1.15,2013-08-17 11:56:00,
2013-08-17 07:01:00,58.6,51.8,30.09,South,177,2.0,2.0,78,0.00,,,0.00,Wunderground v.1.15,2013-08-17 12:01:00,
2013-08-17 07:06:00,58.6,51.8,30.09,South,186,3.0,5.0,78,0.00,,,0.00,Wunderground v.1.15,2013-08-17 12:06:00,
2013-08-17 07:11:00,58.7,51.9,30.09,SSE,161,5.0,5.0,78,0.00,,,0.00,Wunderground v.1.15,2013-08-17 12:11:00,
2013-08-17 07:16:00,58.9,51.7,30.09,SSE,166,2.0,6.0,77,0.00,,,0.00,Wunderground v.1.15,2013-08-17 12:16:00,
2013-08-17 07:21:00,59.2,52.0,30.09,SSW,195,0.0,3.0,77,0.00,,,0.00,Wunderground v.1.15,2013-08-17 12:21:00,
2013-08-17 07:26:00,59.3,52.1,30.09,South,178,0.0,6.0,77,0.00,,,0.00,Wunderground v.1.15,2013-08-17 12:26:00,
2013-08-17 07:31:00,59.5,51.9,30.09,South,175,4.0,7.0,76,0.00,,,0.00,Wunderground v.1.15,2013-08-17 12:31:00,
2013-08-17 07:36:00,59.8,52.2,30.09,South,184,3.0,7.0,76,0.00,,,0.00,Wunderground v.1.15,2013-08-17 12:36:00,
2013-08-17 07:41:00,60.1,52.1,30.09,South,175,0.0,4.0,75,0.00,,,0.00,Wunderground v.1.15,2013-08-17 12:41:00,
2013-08-17 07:46:00,60.4,52.4,30.09,South,187,0.0,5.0,75,0.00,,,0.00,Wunderground v.1.15,2013-08-17 12:46:00,
2013-08-17 07:51:00,60.7,52.7,30.09,South,173,0.0,3.0,75,0.00,,,0.00,Wunderground v.1.15,2013-08-17 12:51:00,
2013-08-17 07:56:00,61.0,52.7,30.09,South,183,0.0,4.0,74,0.00,,,0.00,Wunderground v.1.15,2013-08-17 12:56:00,
2013-08-17 08:01:00,61.3,52.9,30.09,South,174,2.0,3.0,74,0.00,,,0.00,Wunderground v.1.15,2013-08-17 13:01:00,
2013-08-17 08:06:00,61.6,52.9,30.09,SSE,166,3.0,9.0,73,0.00,,,0.00,Wunderground v.1.15,2013-08-17 13:06:00,
2013-08-17 08:11:00,62.0,53.2,30.09,South,175,0.0,6.0,73,0.00,,,0.00,Wunderground v.1.15,2013-08-17 13:11:00,
2013-08-17 08:16:00,62.3,53.5,30.09,South,185,0.0,6.0,73,0.00,,,0.00,Wunderground v.1.15,2013-08-17 13:16:00,
2013-08-17 08:21:00,62.6,53.8,30.09,South,178,0.0,5.0,73,0.00,,,0.00,Wunderground v.1.15,2013-08-17 13:21:00,
2013-08-17 08:26:00,62.7,53.5,30.09,South,173,4.0,9.0,72,0.00,,,0.00,Wunderground v.1.15,2013-08-17 13:26:00,
2013-08-17 08:31:00,63.1,53.9,30.09,South,182,4.0,7.0,72,0.00,,,0.00,Wunderground v.1.15,2013-08-17 13:31:00,
2013-08-17 08:36:00,63.4,54.2,30.09,South,181,5.0,7.0,72,0.00,,,0.00,Wunderground v.1.15,2013-08-17 13:36:00,
2013-08-17 08:41:00,63.9,54.7,30.09,South,179,5.0,5.0,72,0.00,,,0.00,Wunderground v.1.15,2013-08-17 13:41:00,
2013-08-17 08:46:00,64.3,54.7,30.09,SSE,167,3.0,5.0,71,0.00,,,0.00,Wunderground v.1.15,2013-08-17 13:46:00,
2013-08-17 08:51:00,64.7,55.1,30.09,South,180,4.0,6.0,71,0.00,,,0.00,Wunderground v.1.15,2013-08-17 13:51:00,
2013-08-17 08:56:00,65.0,54.6,30.09,SSE,166,4.0,7.0,69,0.00,,,0.00,Wunderground v.1.15,2013-08-17 13:56:00,
2013-08-17 09:01:00,65.5,55.1,30.09,South,184,2.0,9.0,69,0.00,,,0.00,Wunderground v.1.15,2013-08-17 14:01:00,
2013-08-17 09:06:00,66.1,55.6,30.09,SSE,165,2.0,9.0,69,0.00,,,0.00,Wunderground v.1.15,2013-08-17 14:06:00,
2013-08-17 09:11:00,66.4,55.1,30.09,SSE,166,5.0,9.0,67,0.00,,,0.00,Wunderground v.1.15,2013-08-17 14:11:00,
2013-08-17 09:16:00,66.8,55.1,30.09,South,182,10.0,12.0,66,0.00,,,0.00,Wunderground v.1.15,2013-08-17 14:16:00,
2013-08-17 09:21:00,67.1,55.4,30.09,South,183,4.0,7.0,66,0.00,,,0.00,Wunderground v.1.15,2013-08-17 14:21:00,
2013-08-17 09:26:00,67.6,55.4,30.09,SSE,163,6.0,9.0,65,0.00,,,0.00,Wunderground v.1.15,2013-08-17 14:26:00,
2013-08-17 09:31:00,67.6,55.0,30.09,South,188,5.0,10.0,64,0.00,,,0.00,Wunderground v.1.15,2013-08-17 14:31:00,
2013-08-17 09:36:00,67.8,56.0,30.09,SW,219,7.0,10.0,66,0.00,,,0.00,Wunderground v.1.15,2013-08-17 14:36:00,
2013-08-17 09:41:00,68.3,56.1,30.09,South,174,1.0,10.0,65,0.00,,,0.00,Wunderground v.1.15,2013-08-17 14:41:00,
2013-08-17 09:46:00,68.9,56.2,30.09,SSE,165,4.0,10.0,64,0.00,,,0.00,Wunderground v.1.15,2013-08-17 14:46:00,
2013-08-17 09:51:00,69.3,56.2,30.09,SSE,159,4.0,9.0,63,0.00,,,0.00,Wunderground v.1.15,2013-08-17 14:51:00,
2013-08-17 09:56:00,69.4,56.3,30.09,South,185,0.0,11.0,63,0.00,,,0.00,Wunderground v.1.15,2013-08-17 14:56:00,
2013-08-17 10:01:00,69.8,55.7,30.09,South,178,0.0,11.0,61,0.00,,,0.00,Wunderground v.1.15,2013-08-17 15:01:00,
2013-08-17 10:06:00,69.8,55.3,30.09,South,186,2.0,12.0,60,0.00,,,0.00,Wunderground v.1.15,2013-08-17 15:06:00,
2013-08-17 10:11:00,70.1,56.0,30.09,South,169,8.0,11.0,61,0.00,,,0.00,Wunderground v.1.15,2013-08-17 15:11:00,
2013-08-17 10:16:00,70.4,56.3,30.08,South,190,1.0,11.0,61,0.00,,,0.00,Wunderground v.1.15,2013-08-17 15:16:00,
2013-08-17 10:21:00,70.6,55.6,30.08,South,184,3.0,6.0,59,0.00,,,0.00,Wunderground v.1.15,2013-08-17 15:21:00,
2013-08-17 10:26:00,70.9,56.3,30.08,South,190,0.0,6.0,60,0.00,,,0.00,Wunderground v.1.15,2013-08-17 15:26:00,
2013-08-17 10:31:00,71.3,56.2,30.08,South,185,5.0,6.0,59,0.00,,,0.00,Wunderground v.1.15,2013-08-17 15:31:00,
2013-08-17 10:36:00,71.3,55.8,30.08,South,175,6.0,12.0,58,0.00,,,0.00,Wunderground v.1.15,2013-08-17 15:36:00,
2013-08-17 10:42:00,71.5,56.4,30.08,South,187,6.0,7.0,59,0.00,,,0.00,Wunderground v.1.15,2013-08-17 15:42:00,
2013-08-17 10:46:00,72.0,56.4,30.08,South,187,1.0,11.0,58,0.00,,,0.00,Wunderground v.1.15,2013-08-17 15:46:00,
2013-08-17 10:52:00,72.1,55.5,30.08,South,175,6.0,11.0,56,0.00,,,0.00,Wunderground v.1.15,2013-08-17 15:52:00,
2013-08-17 10:57:00,72.3,56.7,30.08,SSE,159,9.0,11.0,58,0.00,,,0.00,Wunderground v.1.15,2013-08-17 15:57:00,
2013-08-17 11:02:00,72.5,55.9,30.08,SW,223,0.0,8.0,56,0.00,,,0.00,Wunderground v.1.15,2013-08-17 16:02:00,
2013-08-17 11:07:00,72.7,56.6,30.08,SSW,203,2.0,9.0,57,0.00,,,0.00,Wunderground v.1.15,2013-08-17 16:07:00,
2013-08-17 11:12:00,73.2,56.6,30.08,South,189,7.0,11.0,56,0.00,,,0.00,Wunderground v.1.15,2013-08-17 16:12:00,
2013-08-17 11:17:00,73.3,55.6,30.08,South,182,5.0,11.0,54,0.00,,,0.00,Wunderground v.1.15,2013-08-17 16:17:00,
2013-08-17 11:22:00,73.3,55.6,30.08,South,169,5.0,11.0,54,0.00,,,0.00,Wunderground v.1.15,2013-08-17 16:22:00,
2013-08-17 11:27:00,73.5,55.8,30.08,SSW,194,10.0,14.0,54,0.00,,,0.00,Wunderground v.1.15,2013-08-17 16:27:00,
2013-08-17 11:32:00,73.9,55.7,30.08,SSE,167,5.0,13.0,53,0.00,,,0.00,Wunderground v.1.15,2013-08-17 16:32:00,
2013-08-17 11:37:00,74.0,55.3,30.08,South,172,5.0,13.0,52,0.00,,,0.00,Wunderground v.1.15,2013-08-17 16:37:00,
2013-08-17 11:42:00,74.0,54.7,30.08,South,186,9.0,14.0,51,0.00,,,0.00,Wunderground v.1.15,2013-08-17 16:42:00,
2013-08-17 11:47:00,73.9,55.2,30.07,South,177,8.0,14.0,52,0.00,,,0.00,Wunderground v.1.15,2013-08-17 16:47:00,
2013-08-17 11:52:00,74.4,56.2,30.07,South,174,4.0,10.0,53,0.00,,,0.00,Wunderground v.1.15,2013-08-17 16:52:00,
2013-08-17 11:57:00,74.6,56.3,30.07,SSE,161,5.0,12.0,53,0.00,,,0.00,Wunderground v.1.15,2013-08-17 16:57:00,
2013-08-17 12:02:00,74.7,55.9,30.06,SSW,192,10.0,12.0,52,0.00,,,0.00,Wunderground v.1.15,2013-08-17 17:02:00,
2013-08-17 12:08:00,74.4,55.1,30.06,South,175,5.0,13.0,51,0.00,,,0.00,Wunderground v.1.15,2013-08-17 17:08:00,
2013-08-17 12:13:00,74.4,55.1,30.06,SSE,153,10.0,12.0,51,0.00,,,0.00,Wunderground v.1.15,2013-08-17 17:13:00,
2013-08-17 12:18:00,74.2,56.0,30.07,SSE,168,8.0,14.0,53,0.00,,,0.00,Wunderground v.1.15,2013-08-17 17:18:00,
2013-08-17 12:23:00,74.0,55.3,30.07,SSW,197,7.0,12.0,52,0.00,,,0.00,Wunderground v.1.15,2013-08-17 17:23:00,
2013-08-17 12:28:00,74.4,56.2,30.07,SSE,147,4.0,12.0,53,0.00,,,0.00,Wunderground v.1.15,2013-08-17 17:28:00,
2013-08-17 12:33:00,74.6,56.3,30.06,South,182,2.0,11.0,53,0.00,,,0.00,Wunderground v.1.15,2013-08-17 17:33:00,
2013-08-17 12:38:00,74.9,55.6,30.06,South,188,2.0,14.0,51,0.00,,,0.00,Wunderground v.1.15,2013-08-17 17:38:00,
2013-08-17 12:43:00,75.4,56.5,30.06,SSE,168,6.0,10.0,52,0.00,,,0.00,Wunderground v.1.15,2013-08-17 17:43:00,
2013-08-17 12:48:00,74.9,56.6,30.06,SE,139,2.0,12.0,53,0.00,,,0.00,Wunderground v.1.15,2013-08-17 17:48:00,
2013-08-17 12:53:00,74.7,56.4,30.06,SSE,161,6.0,12.0,53,0.00,,,0.00,Wunderground v.1.15,2013-08-17 17:53:00,
2013-08-17 12:58:00,74.2,56.0,30.06,South,178,5.0,12.0,53,0.00,,,0.00,Wunderground v.1.15,2013-08-17 17:58:00,
2013-08-17 13:03:00,75.1,57.3,30.06,South,187,3.0,6.0,54,0.00,,,0.00,Wunderground v.1.15,2013-08-17 18:03:00,
2013-08-17 13:08:00,75.3,55.4,30.06,South,175,10.0,17.0,50,0.00,,,0.00,Wunderground v.1.15,2013-08-17 18:08:00,
2013-08-17 13:13:00,75.1,56.8,30.06,South,182,2.0,10.0,53,0.00,,,0.00,Wunderground v.1.15,2013-08-17 18:13:00,
2013-08-17 13:18:00,75.3,56.5,30.05,SSW,199,14.0,15.0,52,0.00,,,0.00,Wunderground v.1.15,2013-08-17 18:18:00,
2013-08-17 13:23:00,75.4,56.0,30.05,South,171,8.0,13.0,51,0.00,,,0.00,Wunderground v.1.15,2013-08-17 18:23:00,
2013-08-17 13:28:00,76.0,57.1,30.05,SSE,166,3.0,13.0,52,0.00,,,0.00,Wunderground v.1.15,2013-08-17 18:28:00,
2013-08-17 13:33:00,76.0,57.1,30.05,South,172,0.0,12.0,52,0.00,,,0.00,Wunderground v.1.15,2013-08-17 18:33:00,
2013-08-17 13:38:00,76.5,57.0,30.05,South,190,1.0,12.0,51,0.00,,,0.00,Wunderground v.1.15,2013-08-17 18:38:00,
2013-08-17 13:43:00,76.3,55.7,30.05,South,172,2.0,10.0,49,0.00,,,0.00,Wunderground v.1.15,2013-08-17 18:43:00,
2013-08-17 13:48:00,76.5,55.9,30.04,South,173,4.0,13.0,49,0.00,,,0.00,Wunderground v.1.15,2013-08-17 18:48:00,
2013-08-17 13:53:00,76.8,56.2,30.04,SSE,157,4.0,10.0,49,0.00,,,0.00,Wunderground v.1.15,2013-08-17 18:53:00,
2013-08-17 13:58:00,77.0,56.9,30.04,South,184,5.0,12.0,50,0.00,,,0.00,Wunderground v.1.15,2013-08-17 18:58:00,
2013-08-17 14:03:00,76.7,56.1,30.04,South,175,5.0,10.0,49,0.00,,,0.00,Wunderground v.1.15,2013-08-17 19:03:00,
2013-08-17 14:08:00,76.3,55.7,30.04,South,178,3.0,13.0,49,0.00,,,0.00,Wunderground v.1.15,2013-08-17 19:08:00,
2013-08-17 14:13:00,76.5,55.3,30.04,South,182,3.0,11.0,48,0.00,,,0.00,Wunderground v.1.15,2013-08-17 19:13:00,
2013-08-17 14:18:00,76.8,56.2,30.04,South,173,2.0,11.0,49,0.00,,,0.00,Wunderground v.1.15,2013-08-17 19:18:00,
2013-08-17 14:23:00,76.1,55.0,30.04,South,175,12.0,15.0,48,0.00,,,0.00,Wunderground v.1.15,2013-08-17 19:23:00,
2013-08-17 14:28:00,75.8,55.3,30.04,ESE,117,9.0,15.0,49,0.00,,,0.00,Wunderground v.1.15,2013-08-17 19:28:00,
2013-08-17 14:33:00,76.3,55.7,30.04,SSE,163,3.0,11.0,49,0.00,,,0.00,Wunderground v.1.15,2013-08-17 19:33:00,
2013-08-17 14:38:00,76.8,55.0,30.04,South,171,10.0,14.0,47,0.00,,,0.00,Wunderground v.1.15,2013-08-17 19:38:00,
2013-08-17 14:44:00,76.8,55.0,30.04,South,171,3.0,11.0,47,0.00,,,0.00,Wunderground v.1.15,2013-08-17 19:44:00,
2013-08-17 14:48:00,76.7,56.1,30.04,WSW,240,7.0,11.0,49,0.00,,,0.00,Wunderground v.1.15,2013-08-17 19:48:00,
2013-08-17 14:53:00,76.7,55.0,30.04,SSE,165,2.0,13.0,47,0.00,,,0.00,Wunderground v.1.15,2013-08-17 19:53:00,
2013-08-17 14:58:00,76.7,55.5,30.04,SSE,163,5.0,13.0,48,0.00,,,0.00,Wunderground v.1.15,2013-08-17 19:58:00,
2013-08-17 15:04:00,77.2,55.4,30.04,South,188,6.0,15.0,47,0.00,,,0.00,Wunderground v.1.15,2013-08-17 20:04:00,
2013-08-17 15:09:00,76.8,55.6,30.04,South,175,2.0,16.0,48,0.00,,,0.00,Wunderground v.1.15,2013-08-17 20:09:00,
2013-08-17 15:14:00,76.8,55.0,30.04,South,175,4.0,12.0,47,0.00,,,0.00,Wunderground v.1.15,2013-08-17 20:14:00,
2013-08-17 15:19:00,76.8,55.0,30.03,South,182,5.0,12.0,47,0.00,,,0.00,Wunderground v.1.15,2013-08-17 20:19:00,
2013-08-17 15:24:00,77.4,55.6,30.03,SSE,164,9.0,13.0,47,0.00,,,0.00,Wunderground v.1.15,2013-08-17 20:24:00,
2013-08-17 15:29:00,77.6,55.8,30.03,South,171,4.0,15.0,47,0.00,,,0.00,Wunderground v.1.15,2013-08-17 20:29:00,
2013-08-17 15:34:00,77.0,55.2,30.02,South,178,6.0,13.0,47,0.00,,,0.00,Wunderground v.1.15,2013-08-17 20:34:00,
2013-08-17 15:39:00,76.5,55.9,30.02,South,184,0.0,14.0,49,0.00,,,0.00,Wunderground v.1.15,2013-08-17 20:39:00,
2013-08-17 15:44:00,76.7,56.1,30.02,SSE,151,3.0,10.0,49,0.00,,,0.00,Wunderground v.1.15,2013-08-17 20:44:00,
2013-08-17 15:49:00,77.6,56.4,30.02,ESE,111,3.0,10.0,48,0.00,,,0.00,Wunderground v.1.15,2013-08-17 20:49:00,
2013-08-17 15:54:00,77.7,56.4,30.02,South,178,3.0,11.0,48,0.00,,,0.00,Wunderground v.1.15,2013-08-17 20:54:00,
2013-08-17 15:59:00,77.4,55.6,30.02,SSE,162,8.0,14.0,47,0.00,,,0.00,Wunderground v.1.15,2013-08-17 20:59:00,
2013-08-17 16:04:00,76.7,55.5,30.02,South,181,15.0,15.0,48,0.00,,,0.00,Wunderground v.1.15,2013-08-17 21:04:00,
2013-08-17 16:09:00,76.3,55.2,30.02,SSE,163,7.0,15.0,48,0.00,,,0.00,Wunderground v.1.15,2013-08-17 21:09:00,
2013-08-17 16:14:00,76.8,55.0,30.02,SSE,168,3.0,12.0,47,0.00,,,0.00,Wunderground v.1.15,2013-08-17 21:14:00,
2013-08-17 16:19:00,76.5,55.3,30.02,SE,136,7.0,12.0,48,0.00,,,0.00,Wunderground v.1.15,2013-08-17 21:19:00,
2013-08-17 16:24:00,76.1,55.0,30.02,South,182,11.0,11.0,48,0.00,,,0.00,Wunderground v.1.15,2013-08-17 21:24:00,
2013-08-17 16:29:00,76.3,54.6,30.02,South,180,3.0,12.0,47,0.00,,,0.00,Wunderground v.1.15,2013-08-17 21:29:00,
2013-08-17 16:34:00,76.5,55.3,30.02,South,177,6.0,7.0,48,0.00,,,0.00,Wunderground v.1.15,2013-08-17 21:34:00,
2013-08-17 16:39:00,77.2,53.6,30.02,South,170,9.0,13.0,44,0.00,,,0.00,Wunderground v.1.15,2013-08-17 21:39:00,
2013-08-17 16:44:00,77.0,55.2,30.02,SSE,164,3.0,7.0,47,0.00,,,0.00,Wunderground v.1.15,2013-08-17 21:44:00,
2013-08-17 16:49:00,76.7,55.0,30.02,South,178,0.0,7.0,47,0.00,,,0.00,Wunderground v.1.15,2013-08-17 21:49:00,
2013-08-17 16:54:00,76.0,55.5,30.02,South,172,5.0,11.0,49,0.00,,,0.00,Wunderground v.1.15,2013-08-17 21:54:00,
2013-08-17 16:59:00,75.8,54.7,30.02,South,178,3.0,11.0,48,0.00,,,0.00,Wunderground v.1.15,2013-08-17 21:59:00,
2013-08-17 17:04:00,76.3,55.7,30.02,South,175,1.0,3.0,49,0.00,,,0.00,Wunderground v.1.15,2013-08-17 22:04:00,
2013-08-17 17:09:00,76.8,54.5,30.02,South,175,2.0,12.0,46,0.00,,,0.00,Wunderground v.1.15,2013-08-17 22:09:00,
2013-08-17 17:14:00,77.0,54.6,30.02,SSW,192,4.0,9.0,46,0.00,,,0.00,Wunderground v.1.15,2013-08-17 22:14:00,
2013-08-17 17:19:00,76.3,54.0,30.02,South,173,5.0,10.0,46,0.00,,,0.00,Wunderground v.1.15,2013-08-17 22:19:00,
2013-08-17 17:24:00,75.6,53.9,30.02,South,189,1.0,12.0,47,0.00,,,0.00,Wunderground v.1.15,2013-08-17 22:24:00,
2013-08-17 17:29:00,76.0,54.3,30.02,South,178,4.0,12.0,47,0.00,,,0.00,Wunderground v.1.15,2013-08-17 22:29:00,
2013-08-17 17:34:00,76.8,53.8,30.02,South,182,2.0,10.0,45,0.00,,,0.00,Wunderground v.1.15,2013-08-17 22:34:00,
2013-08-17 17:39:00,77.0,53.4,30.02,South,173,9.0,11.0,44,0.00,,,0.00,Wunderground v.1.15,2013-08-17 22:39:00,
2013-08-17 17:44:00,77.0,54.0,30.02,South,187,2.0,10.0,45,0.00,,,0.00,Wunderground v.1.15,2013-08-17 22:44:00,
2013-08-17 17:49:00,76.7,54.4,30.02,SSE,168,4.0,10.0,46,0.00,,,0.00,Wunderground v.1.15,2013-08-17 22:49:00,
2013-08-17 17:54:00,76.1,54.4,30.02,South,170,3.0,5.0,47,0.00,,,0.00,Wunderground v.1.15,2013-08-17 22:54:00,
2013-08-17 17:59:00,76.0,54.3,30.02,South,177,0.0,6.0,47,0.00,,,0.00,Wunderground v.1.15,2013-08-17 22:59:00,
2013-08-17 18:04:00,76.3,54.0,30.02,South,184,2.0,11.0,46,0.00,,,0.00,Wunderground v.1.15,2013-08-17 23:04:00,
2013-08-17 18:09:00,76.0,54.3,30.02,SSE,168,0.0,11.0,47,0.00,,,0.00,Wunderground v.1.15,2013-08-17 23:09:00,
2013-08-17 18:14:00,75.8,54.7,30.02,SSE,166,0.0,6.0,48,0.00,,,0.00,Wunderground v.1.15,2013-08-17 23:14:00,
2013-08-17 18:19:00,76.1,54.4,30.01,SE,144,5.0,11.0,47,0.00,,,0.00,Wunderground v.1.15,2013-08-17 23:19:00,
2013-08-17 18:24:00,76.3,54.0,30.01,South,180,4.0,10.0,46,0.00,,,0.00,Wunderground v.1.15,2013-08-17 23:24:00,
2013-08-17 18:29:00,76.3,54.0,30.01,SSE,163,4.0,10.0,46,0.00,,,0.00,Wunderground v.1.15,2013-08-17 23:29:00,
2013-08-17 18:34:00,76.3,54.0,30.01,South,178,4.0,9.0,46,0.00,,,0.00,Wunderground v.1.15,2013-08-17 23:34:00,
2013-08-17 18:39:00,76.1,53.8,30.01,South,174,5.0,9.0,46,0.00,,,0.00,Wunderground v.1.15,2013-08-17 23:39:00,
2013-08-17 18:44:00,76.0,54.3,30.01,SSE,167,5.0,8.0,47,0.00,,,0.00,Wunderground v.1.15,2013-08-17 23:44:00,
2013-08-17 18:49:00,76.0,54.9,30.01,South,175,3.0,8.0,48,0.00,,,0.00,Wunderground v.1.15,2013-08-17 23:49:00,
2013-08-17 18:54:00,75.8,54.7,30.01,South,180,3.0,5.0,48,0.00,,,0.00,Wunderground v.1.15,2013-08-17 23:54:00,
2013-08-17 18:59:00,75.6,53.4,30.01,South,177,4.0,7.0,46,0.00,,,0.00,Wunderground v.1.15,2013-08-17 23:59:00,
2013-08-17 19:04:00,75.4,53.8,30.01,South,177,5.0,12.0,47,0.00,,,0.00,Wunderground v.1.15,2013-08-18 00:04:00,
2013-08-17 19:09:00,75.3,54.3,30.01,South,177,2.0,12.0,48,0.00,,,0.00,Wunderground v.1.15,2013-08-18 00:09:00,
2013-08-17 19:14:00,74.9,54.4,30.01,South,175,4.0,6.0,49,0.00,,,0.00,Wunderground v.1.15,2013-08-18 00:14:00,
2013-08-17 19:19:00,74.4,54.5,30.00,South,175,3.0,6.0,50,0.00,,,0.00,Wunderground v.1.15,2013-08-18 00:19:00,
2013-08-17 19:24:00,74.4,54.5,30.00,South,178,4.0,5.0,50,0.00,,,0.00,Wunderground v.1.15,2013-08-18 00:24:00,
2013-08-17 19:30:00,74.4,54.5,30.00,South,191,4.0,4.0,50,0.00,,,0.00,Wunderground v.1.15,2013-08-18 00:30:00,
2013-08-17 19:35:00,74.2,54.9,30.01,South,191,1.0,4.0,51,0.00,,,0.00,Wunderground v.1.15,2013-08-18 00:35:00,
2013-08-17 19:40:00,74.0,54.7,30.01,South,185,0.0,2.0,51,0.00,,,0.00,Wunderground v.1.15,2013-08-18 00:40:00,
2013-08-17 19:45:00,73.7,54.4,30.01,South,185,0.0,5.0,51,0.00,,,0.00,Wunderground v.1.15,2013-08-18 00:45:00,
2013-08-17 19:50:00,73.3,54.6,30.01,South,175,1.0,1.0,52,0.00,,,0.00,Wunderground v.1.15,2013-08-18 00:50:00,
2013-08-17 19:55:00,73.0,54.9,30.01,South,175,0.0,3.0,53,0.00,,,0.00,Wunderground v.1.15,2013-08-18 00:55:00,
2013-08-17 20:00:00,72.7,55.1,30.01,South,175,0.0,0.0,54,0.00,,,0.00,Wunderground v.1.15,2013-08-18 01:00:00,
2013-08-17 20:05:00,72.1,55.0,30.01,South,175,0.0,0.0,55,0.00,,,0.00,Wunderground v.1.15,2013-08-18 01:05:00,
2013-08-17 20:10:00,71.8,55.7,30.01,South,175,0.0,0.0,57,0.00,,,0.00,Wunderground v.1.15,2013-08-18 01:10:00,
2013-08-17 20:15:00,71.3,55.8,30.01,South,175,0.0,0.0,58,0.00,,,0.00,Wunderground v.1.15,2013-08-18 01:15:00,
2013-08-17 20:20:00,70.9,55.9,30.01,South,175,0.0,0.0,59,0.00,,,0.00,Wunderground v.1.15,2013-08-18 01:20:00,
2013-08-17 20:25:00,70.4,55.8,30.01,South,175,0.0,0.0,60,0.00,,,0.00,Wunderground v.1.15,2013-08-18 01:25:00,
2013-08-17 20:30:00,70.3,56.2,30.01,South,175,0.0,3.0,61,0.00,,,0.00,Wunderground v.1.15,2013-08-18 01:30:00,
2013-08-17 20:35:00,69.9,56.3,30.00,South,175,0.0,3.0,62,0.00,,,0.00,Wunderground v.1.15,2013-08-18 01:35:00,
2013-08-17 20:40:00,69.8,56.2,30.00,South,175,2.0,4.0,62,0.00,,,0.00,Wunderground v.1.15,2013-08-18 01:40:00,
2013-08-17 20:45:00,69.6,56.4,30.00,South,175,0.0,4.0,63,0.00,,,0.00,Wunderground v.1.15,2013-08-18 01:45:00,
2013-08-17 20:50:00,69.3,56.6,30.00,South,175,0.0,0.0,64,0.00,,,0.00,Wunderground v.1.15,2013-08-18 01:50:00,
2013-08-17 20:56:00,68.9,56.6,30.00,South,175,0.0,3.0,65,0.00,,,0.00,Wunderground v.1.15,2013-08-18 01:56:00,
2013-08-17 21:01:00,68.8,56.6,30.00,South,175,0.0,0.0,65,0.00,,,0.00,Wunderground v.1.15,2013-08-18 02:01:00,
2013-08-17 21:06:00,68.6,56.4,30.01,South,175,0.0,3.0,65,0.00,,,0.00,Wunderground v.1.15,2013-08-18 02:06:00,
2013-08-17 21:11:00,68.4,56.2,30.01,South,175,0.0,0.0,65,0.00,,,0.00,Wunderground v.1.15,2013-08-18 02:11:00,
2013-08-17 21:16:00,68.1,56.3,30.01,South,175,0.0,0.0,66,0.00,,,0.00,Wunderground v.1.15,2013-08-18 02:16:00,
2013-08-17 21:21:00,67.8,56.0,30.01,South,175,2.0,2.0,66,0.00,,,0.00,Wunderground v.1.15,2013-08-18 02:21:00,
2013-08-17 21:26:00,67.6,56.2,30.01,South,175,0.0,2.0,67,0.00,,,0.00,Wunderground v.1.15,2013-08-18 02:26:00,
2013-08-17 21:31:00,67.3,56.0,30.01,South,175,0.0,0.0,67,0.00,,,0.00,Wunderground v.1.15,2013-08-18 02:31:00,
2013-08-17 21:36:00,67.1,55.8,30.01,South,175,0.0,6.0,67,0.00,,,0.00,Wunderground v.1.15,2013-08-18 02:36:00,
2013-08-17 21:41:00,67.1,55.4,30.01,South,175,0.0,1.0,66,0.00,,,0.00,Wunderground v.1.15,2013-08-18 02:41:00,
2013-08-17 21:46:00,66.9,55.6,30.01,South,175,0.0,1.0,67,0.00,,,0.00,Wunderground v.1.15,2013-08-18 02:46:00,
2013-08-17 21:51:00,66.8,55.5,30.01,South,175,0.0,0.0,67,0.00,,,0.00,Wunderground v.1.15,2013-08-18 02:51:00,
2013-08-17 21:56:00,66.6,55.3,30.01,South,175,0.0,0.0,67,0.00,,,0.00,Wunderground v.1.15,2013-08-18 02:56:00,
2013-08-17 22:01:00,66.4,55.1,30.01,South,175,0.0,0.0,67,0.00,,,0.00,Wunderground v.1.15,2013-08-18 03:01:00,
2013-08-17 22:06:00,66.1,55.2,30.01,South,175,0.0,3.0,68,0.00,,,0.00,Wunderground v.1.15,2013-08-18 03:06:00,
2013-08-17 22:11:00,66.0,55.1,30.01,South,175,0.0,0.0,68,0.00,,,0.00,Wunderground v.1.15,2013-08-18 03:11:00,
2013-08-17 22:16:00,66.0,55.1,30.01,South,175,0.0,4.0,68,0.00,,,0.00,Wunderground v.1.15,2013-08-18 03:16:00,
2013-08-17 22:21:00,65.8,54.9,30.01,South,175,0.0,0.0,68,0.00,,,0.00,Wunderground v.1.15,2013-08-18 03:21:00,
2013-08-17 22:26:00,65.8,54.9,30.01,South,175,0.0,0.0,68,0.00,,,0.00,Wunderground v.1.15,2013-08-18 03:26:00,
2013-08-17 22:31:00,65.8,54.9,30.02,South,175,0.0,0.0,68,0.00,,,0.00,Wunderground v.1.15,2013-08-18 03:31:00,
2013-08-17 22:36:00,65.6,54.8,30.02,South,175,3.0,5.0,68,0.00,,,0.00,Wunderground v.1.15,2013-08-18 03:36:00,
2013-08-17 22:41:00,65.5,54.7,30.02,South,175,0.0,1.0,68,0.00,,,0.00,Wunderground v.1.15,2013-08-18 03:41:00,
2013-08-17 22:46:00,65.3,54.9,30.02,South,175,0.0,1.0,69,0.00,,,0.00,Wunderground v.1.15,2013-08-18 03:46:00,
2013-08-17 22:51:00,65.0,55.0,30.02,South,175,0.0,0.0,70,0.00,,,0.00,Wunderground v.1.15,2013-08-18 03:51:00,
2013-08-17 22:56:00,64.8,54.8,30.02,South,175,0.0,4.0,70,0.00,,,0.00,Wunderground v.1.15,2013-08-18 03:56:00,
2013-08-17 23:01:00,64.7,54.7,30.02,South,175,0.0,3.0,70,0.00,,,0.00,Wunderground v.1.15,2013-08-18 04:01:00,
2013-08-17 23:02:00,64.7,54.7,30.01,South,175,2.0,4.0,70,0.00,,,0.00,Wunderground v.1.15,2013-08-18 04:02:00,
2013-08-17 23:07:00,64.7,54.7,30.01,South,175,0.0,4.0,70,0.00,,,0.00,Wunderground v.1.15,2013-08-18 04:07:00,
2013-08-17 23:12:00,64.7,54.7,30.01,South,175,2.0,4.0,70,0.00,,,0.00,Wunderground v.1.15,2013-08-18 04:12:00,
2013-08-17 23:17:00,64.7,54.3,30.01,South,175,0.0,5.0,69,0.00,,,0.00,Wunderground v.1.15,2013-08-18 04:17:00,
2013-08-17 23:22:00,64.5,54.1,30.01,South,175,3.0,5.0,69,0.00,,,0.00,Wunderground v.1.15,2013-08-18 04:22:00,
2013-08-17 23:27:00,64.5,54.5,30.01,South,175,2.0,5.0,70,0.00,,,0.00,Wunderground v.1.15,2013-08-18 04:27:00,
2013-08-17 23:32:00,64.3,53.9,30.02,South,175,0.0,4.0,69,0.00,,,0.00,Wunderground v.1.15,2013-08-18 04:32:00,
2013-08-17 23:37:00,64.2,54.2,30.02,South,175,0.0,4.0,70,0.00,,,0.00,Wunderground v.1.15,2013-08-18 04:37:00,
2013-08-17 23:42:00,64.2,54.2,30.02,South,175,0.0,3.0,70,0.00,,,0.00,Wunderground v.1.15,2013-08-18 04:42:00,
2013-08-17 23:47:00,64.2,54.2,30.02,South,175,0.0,3.0,70,0.00,,,0.00,Wunderground v.1.15,2013-08-18 04:47:00,
2013-08-17 23:52:00,63.9,54.3,30.02,South,175,0.0,0.0,71,0.00,,,0.00,Wunderground v.1.15,2013-08-18 04:52:00,
2013-08-17 23:57:00,63.7,54.1,30.02,South,175,0.0,0.0,71,0.00,,,0.00,Wunderground v.1.15,2013-08-18 04:57:00,